AD2TM Weather Reports


time (UTC)temp
C
wind
direction
speed
KPH
gust
KPH
rain 1hr
cm
rain 24hr
cm
rain mn
cm
humidity
%
barometer
mb
20260510043330 11 227 3.2 8.0 0.00 0.41 0.00 96 1006.9
20260510041822 11 305 6.4 16.1 0.00 0.41 0.00 97 1006.8
20260510040336 10 289 6.4 14.5 0.00 0.41 0.41 98 1006.4
20260510034824 10 310 1.6 3.2 0.00 0.41 0.41 98 1005.8
20260510033321 9 136 0.0 4.8 0.00 0.41 0.41 97 1005.9
20260510031833 9 108 0.0 3.2 0.00 0.41 0.41 97 1005.9
20260510030326 9 80 0.0 4.8 0.00 0.41 0.41 96 1005.8
20260510024824 10 127 3.2 4.8 0.00 0.41 0.41 96 1005.7
20260510023317 10 130 1.6 14.5 0.00 0.41 0.41 96 1005.6
20260510021835 10 119 1.6 11.3 0.00 0.41 0.41 96 1005.3
20260510020325 10 157 4.8 12.9 0.00 0.41 0.41 96 1005.2
20260510014824 10 89 6.4 9.7 0.00 0.41 0.41 96 1005.5
20260510013333 10 173 3.2 11.3 0.00 0.41 0.41 95 1005.3
20260510011823 11 112 3.2 8.0 0.00 0.41 0.41 95 1005.0
20260510010338 11 125 4.8 8.0 0.00 0.41 0.41 95 1004.9
20260510004828 11 87 6.4 11.3 0.00 0.41 0.41 95 1005.1
20260510003324 11 130 3.2 6.4 0.00 0.41 0.41 95 1004.7
20260510001837 11 184 3.2 8.0 0.00 0.41 0.41 95 1004.6
20260510000333 11 114 3.2 8.0 0.00 0.41 0.41 94 1004.6
20260509234823 11 124 1.6 9.7 0.00 0.41 0.41 94 1004.4
20260509233320 11 119 1.6 4.8 0.00 0.41 0.41 94 1004.2
20260509231830 11 107 3.2 12.9 0.00 0.41 0.41 93 1004.4
20260509230321 11 92 3.2 11.3 0.00 0.41 0.41 94 1004.6
20260509224835 11 238 1.6 8.0 0.00 0.41 0.41 94 1004.4
20260509223325 11 65 1.6 8.0 0.00 0.41 0.41 94 1004.2
20260509221823 11 82 3.2 11.3 0.00 0.41 0.41 94 1004.2
20260509220333 11 120 6.4 12.9 0.00 0.41 0.41 94 1004.3
20260509214827 11 126 3.2 8.0 0.00 0.41 0.41 94 1004.5
20260509213337 11 139 3.2 16.1 0.00 0.41 0.41 94 1004.6
20260509211828 11 36 4.8 12.9 0.00 0.41 0.41 94 1004.7
20260509210323 11 168 6.4 14.5 0.00 0.41 0.41 94 1004.7
20260509204834 11 163 3.2 8.0 0.00 0.41 0.41 94 1004.8
20260509203327 11 231 4.8 11.3 0.00 0.41 0.41 95 1005.1
20260509201837 11 355 3.2 12.9 0.00 0.41 0.41 95 1005.1
20260509200331 11 132 6.4 16.1 0.00 0.41 0.41 95 1005.2
20260509194823 11 130 1.6 4.8 0.00 0.41 0.41 96 1005.2
20260509193333 11 338 1.6 11.3 0.00 0.41 0.41 96 1005.5
20260509191828 11 143 4.8 9.7 0.00 0.41 0.41 96 1005.7
20260509190318 11 147 3.2 6.4 0.00 0.41 0.41 97 1005.7
20260509184835 10 130 3.2 4.8 0.00 0.41 0.41 97 1005.7
20260509183326 10 126 4.8 9.7 0.00 0.41 0.41 97 1005.7
20260509181821 10 45 3.2 8.0 0.00 0.41 0.41 97 1005.7
20260509180333 10 89 3.2 6.4 0.00 0.41 0.41 97 1005.7
20260509174822 10 108 3.2 8.0 0.00 0.41 0.41 97 1005.7
20260509173336 10 94 1.6 8.0 0.00 0.41 0.41 97 1005.7
20260509171827 10 71 3.2 9.7 0.03 0.41 0.41 97 1005.6
20260509170325 10 62 4.8 12.9 0.03 0.41 0.41 97 1005.6
20260509164836 10 134 3.2 9.7 0.05 0.41 0.41 97 1005.8
20260509163331 10 106 1.6 9.7 0.05 0.41 0.41 97 1005.9
20260509161821 10 88 3.2 9.7 0.03 0.38 0.38 97 1006.2
20260509160332 10 99 6.4 11.3 0.05 0.46 0.38 97 1006.3
20260509154826 9 150 6.4 14.5 0.05 0.43 0.36 97 1006.3
20260509153318 9 107 4.8 9.7 0.08 0.43 0.36 97 1006.6
20260509151835 9 171 1.6 12.9 0.08 0.43 0.36 97 1006.8
20260509150327 9 142 8.0 14.5 0.08 0.48 0.33 97 1006.8
20260509143333 9 80 3.2 11.3 0.08 0.43 0.28 98 1006.9
20260509141825 9 82 1.6 4.8 0.10 0.43 0.28 97 1006.9
20260509140320 8 80 1.6 4.8 0.10 0.46 0.25 98 1006.9
20260509134831 8 96 1.6 4.8 0.10 0.43 0.23 97 1007.2
20260509133327 8 80 1.6 4.8 0.15 0.41 0.20 97 1007.3
20260509131837 8 83 1.6 4.8 0.15 0.38 0.18 97 1007.4
20260509130331 8 95 1.6 3.2 0.15 0.36 0.15 97 1007.4
20260509124825 8 75 1.6 3.2 0.13 0.33 0.13 96 1007.4
20260509123320 7 86 1.6 8.0 0.05 0.25 0.05 96 1007.4
20260509121830 7 90 1.6 8.0 0.03 0.23 0.03 96 1007.5
20260509120319 7 102 1.6 4.8 0.00 0.20 0.00 96 1007.6
20260509114834 7 155 1.6 4.8 0.00 0.20 0.00 95 1007.5
20260509113324 7 125 3.2 8.0 0.00 0.20 0.00 95 1007.6
20260509111823 7 88 1.6 17.7 0.00 0.20 0.00 95 1007.6
20260509110333 6 98 1.6 4.8 0.00 0.20 0.00 95 1007.4
20260509104828 6 157 0.0 3.2 0.00 0.20 0.00 95 1007.3
20260509103319 5 227 1.6 3.2 0.00 0.20 0.00 94 1007.2
20260509101833 5 301 0.0 1.6 0.00 0.20 0.00 93 1007.0
20260509100327 5 301 0.0 1.6 0.00 0.20 0.00 92 1007.3
20260509094818 5 266 1.6 3.2 0.00 0.20 0.00 92 1007.3
20260509093316 5 249 0.0 1.6 0.00 0.20 0.00 92 1007.4
20260509091831 5 248 1.6 4.8 0.00 0.20 0.00 92 1007.4
20260509090326 5 249 1.6 1.6 0.00 0.20 0.00 92 1007.8
20260509084837 5 249 1.6 4.8 0.00 0.20 0.00 91 1007.8
20260509083328 5 260 1.6 3.2 0.00 0.20 0.00 89 1007.8
20260509081823 5 244 0.0 3.2 0.00 0.20 0.00 89 1007.9
20260509080333 4 213 1.6 3.2 0.00 0.20 0.00 93 1008.0
20260509074829 3 219 0.0 1.6 0.00 0.20 0.00 94 1007.9
20260509073319 3 225 1.6 3.2 0.00 0.20 0.00 93 1007.9
20260509071834 2 161 1.6 3.2 0.00 0.20 0.00 92 1007.9
20260509070326 2 239 0.0 0.0 0.00 0.20 0.00 92 1007.9
20260509064821 2 239 0.0 1.6 0.00 0.20 0.00 91 1008.1
20260509063331 2 239 0.0 0.0 0.00 0.20 0.00 91 1008.2
20260509061822 1 239 0.0 0.0 0.00 0.20 0.00 91 1008.4
20260509060338 1 239 0.0 0.0 0.00 0.20 0.00 90 1008.5
20260509054829 1 239 0.0 1.6 0.00 0.20 0.00 91 1008.7
20260509053324 1 239 0.0 0.0 0.00 0.20 0.00 91 1009.0
20260509051834 1 239 0.0 1.6 0.00 0.20 0.00 90 1009.0
20260509050330 1 239 0.0 0.0 0.00 0.20 0.00 90 1009.0
20260509044820 1 239 0.0 0.0 0.00 0.20 0.00 89 1009.0